Theta_e
313 312 314 315 319 321 324 328 327 326 323 320 321 320 317 317 317 317 318 318 319 320 318 318 323 326 326 327 332 332 330 337 339 333 331 332 332 334 336 334 333 334 336 338 339 339 339 339 338 337 333 327 324 322 321 320 319 323 330 332 331 331 330 331 331 331 333 334 335 336 337 337 336 334 331 330 332 333 333 333 332 332 331 331 331 332 331 330 329 329 329 329 328 328 328 328 329
314 313 314 318 322 320 325 330 331 327 322 316 319 322 316 315 317 320 323 322 320 319 322 328 329 329 329 327 329 329 328 332 329 328 332 332 334 335 335 334 333 335 336 338 339 339 339 339 338 336 332 327 324 322 320 321 319 319 325 331 332 332 332 332 332 332 334 334 334 336 337 336 334 332 331 331 332 332 332 332 331 331 330 330 332 332 331 330 329 328 329 329 328 328 328 328 329
314 313 316 321 322 322 329 330 329 327 320 318 323 323 316 317 320 322 324 320 319 320 325 329 328 325 326 326 326 327 328 330 327 328 334 335 335 336 336 334 333 335 335 338 339 339 339 338 338 337 332 326 324 323 321 321 320 319 320 326 331 331 332 332 333 334 334 330 330 336 337 335 334 332 331 330 330 332 331 331 330 330 329 330 331 331 332 332 329 327 328 328 328 327 327 328 328
315 317 319 323 324 329 342 334 329 327 319 320 322 321 321 324 322 322 320 317 319 321 322 322 325 321 322 326 327 328 333 334 331 332 336 335 336 336 335 335 335 335 335 338 339 339 339 338 338 337 333 327 324 323 322 321 321 320 318 320 327 331 332 331 332 333 330 327 328 333 336 335 334 332 331 328 328 331 330 330 330 329 329 330 331 331 331 330 329 328 327 327 328 328 328 328 328
317 319 318 322 327 330 337 328 325 323 319 322 318 318 325 326 321 320 317 316 319 320 318 321 328 324 323 329 329 329 332 335 333 332 336 335 335 336 336 336 335 335 336 337 338 339 339 339 338 337 335 327 325 324 323 323 322 321 319 317 322 329 332 331 331 332 329 328 328 331 334 335 333 331 330 326 326 330 330 329 329 329 330 331 331 331 330 329 330 329 327 326 327 328 328 327 328
319 320 318 318 319 319 324 319 319 322 322 323 318 318 322 321 318 320 318 315 316 316 316 319 327 329 329 329 326 328 329 335 334 333 335 335 335 335 336 337 336 336 336 337 338 339 339 339 337 338 336 328 325 325 324 323 323 322 320 317 318 326 332 331 332 333 331 330 331 332 333 334 332 331 328 323 325 329 329 328 328 329 330 330 330 331 331 330 330 328 328 327 326 326 327 327 327
319 320 323 321 318 320 326 323 325 326 317 315 316 316 319 319 317 320 319 318 317 314 315 318 324 329 328 326 327 329 330 334 333 334 335 335 336 335 337 337 337 336 336 337 338 338 338 338 337 338 335 329 325 326 325 324 324 323 321 318 317 324 331 331 332 334 332 331 333 334 333 333 331 330 326 322 326 329 328 328 328 329 330 330 331 332 332 331 329 326 328 328 325 326 326 326 327
320 322 325 329 327 327 330 325 325 324 314 311 314 316 320 319 317 322 320 319 318 315 319 323 322 323 322 324 333 331 329 334 333 335 335 335 337 335 336 336 337 337 337 337 338 339 338 338 337 337 335 330 327 325 326 326 325 324 322 320 317 323 330 332 332 333 331 329 332 333 332 332 331 330 327 322 327 329 327 328 328 329 329 329 331 332 332 331 328 325 327 326 325 326 326 326 326
317 320 323 328 327 326 328 321 317 318 316 316 314 318 322 317 316 321 320 317 316 317 324 326 322 317 320 327 334 329 330 334 334 336 335 336 337 336 336 336 336 337 338 338 338 338 338 338 337 337 335 331 328 326 327 327 326 324 323 321 318 320 328 331 331 331 329 329 331 332 330 331 331 330 328 323 326 328 327 328 328 329 329 329 330 331 331 330 328 325 326 327 327 326 326 326 325
318 319 322 328 327 322 320 317 317 318 317 318 315 318 320 316 316 318 319 316 315 320 322 321 322 318 322 331 332 328 332 334 334 336 336 337 336 336 336 335 336 336 338 338 338 338 338 338 337 338 336 332 329 327 328 328 327 326 324 322 319 317 322 327 330 332 330 329 328 329 328 329 332 330 328 325 326 327 327 328 327 328 329 329 330 330 330 329 327 325 325 327 327 326 326 325 324
324 324 328 330 328 320 318 319 321 323 320 319 317 317 318 315 316 317 316 315 315 318 317 317 324 328 329 333 331 328 330 334 336 336 336 337 337 336 335 334 334 335 337 338 337 337 338 338 338 338 336 333 331 328 328 329 328 327 325 323 321 317 318 323 328 331 330 328 325 326 328 329 331 330 329 326 325 327 326 326 327 328 328 329 329 330 329 328 327 325 326 326 326 326 327 325 324
324 328 338 335 326 321 321 322 321 329 329 321 319 317 315 314 316 317 315 317 316 317 318 316 321 328 334 336 328 324 329 336 336 335 337 337 336 336 334 334 334 335 336 337 337 337 338 339 338 337 337 334 331 329 328 329 329 328 326 324 323 319 317 319 326 330 329 326 323 326 330 330 330 330 330 326 324 325 326 326 327 328 327 328 329 328 329 328 327 326 325 325 326 326 327 326 325
330 331 338 326 319 322 322 321 318 328 330 323 319 313 311 314 316 317 318 318 316 319 317 314 320 324 329 331 324 324 330 335 336 336 337 337 337 335 334 334 334 335 335 336 337 336 337 338 338 337 337 335 333 330 328 329 329 329 328 326 324 321 318 317 321 327 327 325 323 327 330 330 330 330 330 328 325 325 326 326 327 327 327 327 327 327 328 328 327 325 324 324 326 326 326 326 325
333 334 334 320 315 322 323 319 319 322 322 322 318 311 311 315 317 317 317 317 317 320 312 310 321 324 322 322 323 332 333 334 337 337 337 338 337 335 335 335 334 334 335 336 336 336 337 338 338 337 337 336 335 332 330 328 327 329 329 327 325 323 320 318 317 321 323 321 322 328 327 327 329 329 329 328 327 325 325 326 325 325 326 327 326 327 328 327 326 325 324 324 325 325 326 326 325
327 331 334 327 317 320 320 317 323 325 321 322 315 312 315 313 314 317 315 317 317 313 309 311 317 318 318 320 321 329 331 335 337 338 338 339 338 337 337 336 335 334 335 336 336 336 336 337 337 337 337 336 336 334 332 329 327 328 330 329 326 325 323 320 317 317 318 317 319 324 325 324 325 326 327 327 326 324 324 325 324 324 325 326 326 327 327 325 324 324 325 325 325 325 325 325 325
326 333 333 329 319 318 317 315 321 323 322 320 311 311 317 313 310 316 311 312 315 309 313 317 314 316 318 320 321 323 330 337 337 338 339 338 338 338 338 337 336 334 335 336 336 337 336 337 337 337 337 336 336 335 333 332 329 327 329 330 328 326 324 322 319 317 316 317 317 320 321 322 321 322 324 325 325 323 324 325 324 323 323 325 326 326 325 323 324 324 325 325 325 325 325 325 325
324 335 333 325 320 320 318 316 319 320 323 318 310 311 319 315 309 311 306 307 315 312 318 317 313 320 322 318 320 324 332 336 337 338 336 337 337 337 337 337 336 335 335 336 336 337 336 336 336 336 337 337 336 335 334 333 331 328 328 330 329 327 326 324 322 319 316 316 316 317 319 320 319 320 322 323 322 322 324 325 325 323 322 324 325 325 324 323 324 325 324 324 324 324 324 325 325
329 337 330 323 323 324 321 320 319 319 321 316 313 314 318 318 312 310 308 311 315 313 318 317 318 322 320 320 322 326 333 336 337 337 336 336 336 336 337 336 336 336 335 336 336 337 336 336 335 335 336 336 335 335 334 333 332 330 329 330 330 329 327 326 324 321 318 316 316 316 317 318 318 318 320 321 321 321 323 325 324 323 322 322 324 324 323 323 324 324 323 323 323 324 324 324 324
335 334 326 330 331 323 319 320 318 316 317 317 314 313 315 317 313 311 312 316 316 314 317 316 322 323 321 322 323 327 332 335 337 336 336 336 336 337 337 337 336 336 335 336 336 336 336 336 336 335 335 334 334 334 334 334 332 331 330 329 330 330 329 327 326 324 321 318 316 316 316 316 317 317 318 320 320 320 322 324 324 324 323 322 323 324 323 324 323 323 323 323 323 323 323 323 324
328 327 326 337 334 321 316 318 318 315 315 319 315 310 312 313 312 311 313 317 315 318 319 315 320 323 327 325 321 327 331 333 336 335 336 336 337 337 337 337 337 336 336 335 336 337 337 336 336 336 335 334 334 334 334 333 332 332 330 329 329 330 329 329 327 325 324 321 318 317 315 315 315 316 316 318 319 319 321 323 324 324 322 322 323 323 322 322 321 322 322 322 322 322 322 322 322
319 323 329 330 323 318 315 315 316 314 313 318 316 311 312 311 310 312 314 317 316 320 319 316 319 323 335 328 320 328 330 332 335 334 336 335 337 337 337 337 336 337 336 335 336 336 337 337 337 336 336 335 335 335 335 333 331 332 331 330 330 330 330 329 328 327 325 323 321 319 316 315 315 315 315 315 317 318 319 320 322 322 321 320 321 321 320 319 320 322 322 321 321 321 321 320 321
316 318 321 320 316 315 314 313 313 312 312 315 315 314 313 310 311 313 315 316 319 319 315 317 316 319 337 331 323 328 329 331 333 333 335 335 336 336 337 337 336 336 336 336 335 336 337 338 338 337 336 336 336 335 335 334 331 331 331 330 330 330 330 330 329 328 327 325 323 321 319 317 315 314 314 313 313 316 318 317 318 319 318 318 319 320 319 319 321 321 321 321 320 320 320 319 319
320 318 314 316 315 314 313 313 313 311 314 316 315 313 312 312 312 312 314 315 317 313 310 311 308 312 325 325 324 329 330 331 332 333 334 334 334 334 335 336 335 335 335 336 335 335 335 336 338 338 337 336 336 336 335 335 333 331 330 330 330 330 330 330 330 329 329 328 326 324 322 319 317 315 315 314 311 312 316 315 315 317 317 317 317 319 320 319 320 320 320 320 320 319 319 319 318
321 319 314 315 313 312 312 311 311 311 316 315 311 311 312 315 313 309 312 315 314 308 303 302 304 312 321 324 326 329 330 330 331 333 333 334 333 333 334 334 335 335 334 335 335 335 334 335 336 336 338 337 336 335 334 335 335 332 329 329 330 329 329 329 330 330 329 329 327 326 324 322 320 318 316 316 313 311 312 313 314 315 317 317 316 317 320 320 320 320 320 320 320 319 319 318 318
319 318 315 314 311 312 311 310 312 313 314 311 310 312 313 313 310 310 315 317 312 307 308 311 313 320 326 328 328 327 329 330 330 331 332 333 333 333 334 334 334 334 334 334 334 334 334 333 334 336 337 337 336 334 334 333 334 334 330 330 330 329 328 328 329 330 330 330 329 328 326 325 323 321 319 317 315 313 311 310 311 313 314 316 316 315 318 319 319 319 319 319 319 319 318 318 318
318 317 315 314 312 312 311 312 315 313 312 310 312 314 313 310 308 312 317 316 310 310 321 328 328 333 332 329 327 326 329 329 329 330 331 332 332 333 333 334 334 334 334 334 333 334 334 333 333 335 336 337 337 335 334 333 332 334 333 330 330 329 328 328 328 330 330 330 330 329 328 327 326 324 321 319 318 316 313 311 309 309 311 314 315 315 316 318 319 319 319 319 318 318 318 318 318
316 318 316 315 313 313 313 313 314 313 312 312 314 315 313 309 310 315 315 310 307 317 334 330 332 343 335 328 326 325 327 327 329 329 330 330 331 332 333 333 334 335 335 333 333 333 333 334 333 333 334 336 336 336 335 333 332 333 333 331 330 330 329 328 327 328 330 330 330 330 329 329 327 326 324 321 319 318 317 315 311 309 308 310 312 314 315 317 318 319 318 318 318 317 318 318 318
315 317 315 315 314 313 313 314 314 314 312 311 315 315 312 310 312 318 313 307 308 319 337 333 334 338 329 327 326 323 324 326 328 328 329 330 330 332 332 333 333 334 335 334 333 332 333 333 333 333 332 333 335 337 335 334 333 332 332 332 331 330 329 329 328 327 328 329 330 329 330 330 329 328 326 324 322 320 319 318 315 312 309 308 309 311 313 315 317 318 318 318 317 317 318 317 318
315 316 315 316 317 314 311 314 314 314 313 312 314 312 313 314 315 319 311 307 311 317 329 336 337 332 325 326 325 323 322 323 326 326 328 329 330 331 331 332 333 333 334 334 333 332 332 332 333 333 332 332 333 336 336 334 333 333 332 331 331 331 330 330 329 328 327 328 329 329 330 330 331 330 329 327 325 322 320 320 319 316 312 309 308 309 311 312 315 317 317 317 317 317 317 317 317
314 314 317 317 317 314 311 313 315 313 312 311 312 310 315 318 315 313 309 308 312 317 322 325 329 327 323 323 324 324 321 321 324 325 327 328 329 330 330 331 331 332 333 333 333 332 332 331 332 333 333 333 332 333 335 335 334 333 333 332 332 332 331 331 330 330 329 330 331 330 331 331 331 331 330 330 327 324 322 320 320 319 316 312 309 308 309 310 312 315 316 316 317 316 316 317 317
314 311 318 319 315 317 313 313 316 312 310 309 308 310 315 317 313 307 308 311 311 315 320 318 319 321 319 318 319 322 320 319 322 323 325 326 327 328 329 330 330 331 331 332 332 332 332 331 330 331 332 334 333 333 332 334 334 333 333 334 333 333 332 332 331 332 331 332 332 331 332 332 332 330 329 330 329 328 325 323 323 322 320 315 311 309 308 309 310 313 314 315 315 315 315 316 316
320 310 317 317 312 318 316 314 317 314 311 310 308 312 315 315 314 308 307 312 313 314 320 319 319 318 317 316 314 317 316 314 318 321 324 324 325 326 327 328 328 329 330 331 331 331 332 331 331 330 329 331 331 333 333 332 332 332 332 333 334 334 333 333 332 333 333 332 332 331 331 331 333 332 330 330 330 330 328 326 326 325 323 319 314 311 310 311 310 311 313 313 314 314 314 314 314
323 314 319 319 314 316 314 313 314 315 314 313 310 313 317 316 314 310 307 311 313 315 321 322 323 320 317 314 311 312 311 311 311 313 320 323 324 325 325 326 326 327 328 329 330 330 331 331 331 330 329 329 329 331 334 335 334 332 331 332 333 333 332 332 331 332 332 332 333 333 332 331 332 332 331 331 330 329 329 327 326 326 326 323 319 315 314 314 312 311 312 312 314 314 314 314 313
319 318 320 318 317 316 314 315 312 311 313 314 313 312 317 317 314 315 312 310 312 315 320 321 321 320 318 315 312 311 309 311 309 307 314 320 321 323 323 324 324 325 325 326 327 327 328 329 330 330 329 329 329 329 331 334 336 335 333 332 333 334 334 333 333 332 332 331 331 332 332 332 332 331 330 330 330 330 328 328 327 326 327 326 323 319 317 315 313 312 312 312 313 313 313 313 312
317 318 316 314 316 313 315 318 312 311 313 314 316 314 316 317 315 316 313 310 313 315 316 316 316 316 315 314 314 312 310 311 309 305 309 312 315 318 320 322 323 324 324 325 325 326 326 327 328 329 329 329 329 329 328 330 332 335 335 334 333 333 334 333 333 333 333 333 332 332 331 331 332 332 331 331 331 331 330 329 328 326 327 326 324 321 318 315 313 313 312 312 313 312 312 312 312
320 320 319 319 321 317 316 318 312 310 314 316 317 316 317 317 317 317 313 311 313 314 314 314 313 313 313 312 313 312 313 313 307 304 307 308 309 312 313 316 318 320 323 323 324 325 325 325 325 326 327 328 329 329 329 329 329 332 334 335 335 333 332 330 329 329 330 331 331 331 329 329 330 331 332 332 331 331 330 329 328 327 327 325 322 320 319 318 315 313 313 312 312 312 311 311 310
319 319 321 321 320 317 315 315 312 310 314 317 317 318 318 317 316 317 312 310 311 313 315 315 315 314 314 314 314 313 312 310 305 304 307 307 307 309 309 310 311 312 315 318 320 322 322 323 324 324 324 325 327 328 329 329 329 330 331 333 334 333 333 332 331 330 330 330 330 329 329 329 330 330 330 330 330 329 329 329 328 328 326 324 323 321 321 320 317 314 312 311 311 311 311 310 309
319 318 318 317 316 317 314 313 313 310 312 317 316 317 317 317 317 316 312 310 313 315 316 318 317 314 313 314 315 313 310 307 304 304 305 306 307 307 308 308 308 309 310 311 314 315 317 320 321 322 322 323 324 326 327 328 328 329 330 331 332 332 333 333 333 333 332 331 331 330 331 332 332 332 331 330 328 328 328 327 325 325 325 325 325 323 321 320 318 315 312 311 310 309 310 310 309
324 319 316 316 316 317 313 312 312 310 312 318 319 318 318 317 316 316 313 313 314 313 314 316 316 315 312 312 312 310 309 309 308 305 303 305 306 306 307 308 307 308 309 309 309 310 313 315 317 319 321 322 322 323 325 326 327 327 328 329 330 331 331 332 332 333 333 333 333 332 331 330 331 332 333 332 329 328 328 327 325 325 326 325 324 323 321 319 317 315 313 312 309 308 308 308 308
322 319 318 317 316 316 314 313 313 310 311 316 319 318 317 317 316 316 311 308 309 309 309 310 309 311 311 310 309 309 310 311 309 308 304 303 305 306 306 306 307 307 307 308 308 308 310 311 313 316 319 320 321 322 323 324 325 326 326 327 328 329 330 331 331 332 332 331 332 331 329 329 330 331 333 333 331 330 329 328 327 327 327 327 325 323 321 319 318 316 314 312 310 308 307 307 308
317 321 328 325 318 318 316 313 313 313 310 311 314 314 321 326 323 321 314 307 310 309 308 311 309 307 307 307 308 308 308 308 308 309 306 302 303 306 306 305 306 306 307 308 308 308 309 310 311 314 316 319 320 321 322 323 325 325 326 326 327 328 328 328 329 329 329 329 328 328 328 329 330 330 331 331 332 331 329 329 328 327 327 328 327 324 323 321 319 318 316 314 312 310 308 308 307
315 320 330 330 323 321 318 315 316 318 314 310 310 313 327 334 328 326 320 316 319 312 311 316 314 309 308 309 310 307 306 306 306 307 304 302 302 303 305 305 305 306 306 307 308 308 309 309 310 312 315 317 319 320 322 323 324 325 325 325 326 326 327 327 327 327 327 327 327 327 327 328 328 329 329 330 330 329 329 329 329 327 326 327 326 325 323 321 318 318 317 316 315 313 310 308 306
315 315 322 324 324 324 322 319 317 319 314 308 309 315 321 325 324 325 320 319 321 315 314 317 313 311 312 312 312 309 308 306 305 305 303 300 301 303 306 308 307 308 307 307 307 308 308 309 310 311 314 316 318 319 321 322 323 324 324 324 325 325 325 325 325 325 325 326 326 326 327 326 327 328 329 329 329 328 328 329 330 329 327 327 326 325 324 323 321 321 320 318 317 314 311 307 305
317 313 317 323 324 325 325 322 320 319 313 311 318 319 314 316 318 320 316 316 319 318 318 317 312 315 317 316 315 313 312 309 308 312 309 302 302 305 307 309 310 310 309 308 308 308 309 309 310 312 314 315 317 319 320 322 323 324 324 324 324 324 324 325 325 324 325 325 325 325 325 326 326 326 327 327 328 329 329 330 330 329 327 327 326 325 325 323 322 321 320 318 316 314 313 311 309
318 310 313 319 321 325 327 325 324 319 311 315 323 314 311 319 322 321 315 313 318 320 319 315 313 316 318 318 317 315 315 311 310 314 310 304 304 307 308 309 310 311 310 310 310 310 310 310 311 312 314 315 317 319 320 322 322 323 324 324 324 324 324 325 325 325 325 325 325 325 325 325 325 325 326 326 327 328 328 329 330 328 327 327 326 325 325 323 322 320 320 319 317 316 315 312 310
314 307 311 315 317 322 324 324 324 319 315 322 321 310 310 318 324 325 315 311 317 319 316 314 316 319 318 318 315 313 315 316 315 310 303 304 307 307 309 310 311 311 311 311 312 311 311 312 312 313 315 316 318 319 320 321 322 323 324 324 324 324 324 325 325 325 325 325 324 325 325 324 325 325 325 325 325 326 326 326 327 327 328 328 327 326 325 324 323 321 319 318 318 317 314 310 309
310 312 316 316 320 324 324 325 321 316 322 326 316 311 311 311 321 325 314 312 315 314 314 314 318 321 319 317 314 313 315 317 319 314 304 304 307 308 310 311 311 312 312 313 313 313 313 313 313 314 316 317 318 319 320 321 322 323 323 324 324 324 324 325 325 324 324 324 324 324 324 324 324 324 324 324 323 323 323 324 324 324 326 327 328 327 326 324 323 321 320 319 319 318 314 311 310
315 322 321 317 322 324 324 327 319 315 327 323 311 310 311 310 317 318 314 315 313 312 316 315 316 320 319 317 315 313 315 316 318 319 311 305 305 308 310 311 312 312 312 313 313 313 313 313 314 315 315 316 317 318 319 320 321 321 322 322 323 323 324 324 324 324 323 323 323 323 323 322 322 322 322 322 322 322 322 322 323 323 324 325 326 326 326 325 324 323 322 321 320 318 316 313 312
319 320 321 320 321 318 322 328 319 317 324 314 307 310 310 311 315 312 313 316 314 314 317 315 314 317 318 317 315 314 315 316 316 317 318 310 305 306 309 310 311 312 312 313 313 313 313 313 313 314 314 315 315 316 316 317 317 318 319 319 320 320 321 321 322 322 322 322 322 321 321 321 321 321 321 321 321 321 321 321 321 322 322 322 323 323 324 324 323 322 321 321 321 319 317 315 314
315 315 319 322 321 315 317 320 314 315 317 310 307 310 311 314 314 313 314 311 311 313 313 314 313 313 315 314 315 316 315 316 315 316 321 314 305 305 308 309 310 311 311 312 312 312 312 312 312 313 313 313 313 313 313 314 314 314 315 315 316 316 317 317 317 317 318 318 319 319 319 319 319 319 318 319 319 318 319 319 319 319 319 319 319 319 319 319 319 319 319 319 320 319 319 317 316
313 315 315 319 325 323 320 320 319 320 317 310 307 310 318 319 310 312 315 311 311 312 311 313 312 311 313 313 316 317 316 315 314 316 317 309 304 307 308 309 310 310 311 311 311 311 311 311 311 311 311 311 311 311 312 312 312 312 312 312 313 313 313 313 313 314 314 314 315 316 316 316 316 316 316 316 316 316 316 316 316 316 316 315 315 315 315 315 315 316 317 318 319 319 318 317 317
315 313 312 315 322 323 317 314 317 318 314 312 310 313 321 318 307 310 312 310 311 310 311 314 315 315 315 315 316 316 315 315 314 317 316 307 305 308 308 308 309 309 309 310 310 310 310 310 310 310 310 310 310 310 311 311 311 311 311 311 311 311 311 311 311 312 312 312 313 313 314 314 314 314 315 315 315 315 315 315 314 314 314 314 314 314 314 314 314 315 315 316 316 316 316 316 316
314 312 314 317 316 318 315 306 306 309 311 313 312 314 319 314 309 315 314 312 312 310 311 313 313 316 317 316 316 314 314 313 312 314 313 306 305 306 306 307 307 307 308 308 309 309 310 310 310 310 310 310 310 310 310 310 310 311 310 311 311 310 310 310 310 310 311 311 311 312 312 313 313 313 314 314 314 314 314 314 314 314 314 314 313 313 313 313 313 313 313 313 313 313 313 313 313
315 316 316 312 309 314 317 312 313 313 314 319 315 313 318 314 312 318 315 312 314 313 313 312 311 315 318 317 316 314 313 312 312 311 308 303 303 305 305 306 306 307 308 308 308 309 309 310 310 310 310 309 309 309 309 310 310 310 310 310 310 309 309 310 309 310 310 310 311 311 311 312 312 312 313 313 313 313 313 313 313 313 313 313 313 313 312 312 312 312 312 312 311 310 309 309 310
314 317 313 312 314 316 313 311 318 315 312 323 322 311 310 312 316 321 314 312 316 313 311 310 312 317 319 319 316 314 313 313 313 314 310 304 302 304 305 305 306 307 307 308 309 309 310 310 310 310 310 310 309 309 309 309 310 309 309 309 309 309 309 309 309 309 309 310 310 310 310 311 311 311 311 312 312 312 312 312 312 312 312 312 312 312 312 311 311 311 311 311 310 309 308 308 308
311 310 307 313 321 321 314 311 316 315 310 318 322 316 315 315 316 321 316 313 315 312 310 311 314 318 318 319 319 317 317 316 314 315 312 304 301 304 304 305 305 306 306 308 309 310 310 310 310 310 310 310 310 310 310 310 310 310 309 309 308 308 308 308 308 308 308 309 309 309 309 309 310 310 310 310 311 311 311 311 311 311 311 311 311 311 311 310 310 310 310 310 310 308 307 307 307
310 310 309 313 315 314 314 312 313 318 317 318 317 320 330 325 313 315 316 312 312 312 312 312 314 316 318 319 320 319 318 316 314 315 311 302 302 304 303 303 304 304 305 306 307 308 308 309 309 309 310 310 310 310 310 310 309 309 309 309 308 308 308 308 307 307 308 307 307 308 308 308 308 309 309 309 309 310 310 310 310 310 310 310 310 310 310 310 310 310 310 309 309 308 307 307 307
311 311 311 313 313 313 315 313 312 313 314 317 315 315 328 326 312 312 315 312 312 312 312 313 314 316 318 319 319 319 317 315 315 315 307 300 301 302 302 302 303 303 304 304 305 306 307 308 308 309 309 309 309 309 309 309 309 309 309 308 308 307 307 307 307 307 306 306 306 306 307 307 307 307 308 308 308 308 308 308 309 309 309 309 310 310 310 309 309 309 309 309 309 308 307 306 307
Wind_Speed
6 6 6 5 4 1 2 5 2 2 2 1 1 1 2 1 0 2 1 1 1 1 2 1 3 5 2 2 4 4 2 3 3 1 1 2 7 22 19 16 23 21 20 19 16 16 14 14 15 15 14 13 11 13 14 14 13 14 15 14 14 14 15 15 15 14 12 11 12 13 15 16 16 15 15 16 16 16 16 17 17 18 18 18 18 18 18 19 20 19 19 20 20 20 19 18 17
5 5 5 4 6 2 1 3 2 2 3 1 2 1 1 1 0 4 4 3 3 2 0 2 3 3 2 2 4 4 2 1 3 1 1 3 13 19 15 20 25 22 21 18 16 15 14 14 14 14 13 12 11 12 14 14 13 13 15 15 15 15 15 15 15 14 12 11 11 12 14 14 14 12 13 15 16 16 16 16 17 18 17 17 18 18 18 18 19 19 19 20 19 19 18 18 18
4 4 4 3 4 4 1 3 1 0 2 1 3 2 1 2 3 5 5 4 3 1 1 2 2 2 2 2 2 2 1 0 3 1 3 11 15 14 17 23 24 22 22 18 16 15 14 14 14 14 13 12 10 12 14 13 13 13 13 15 16 16 15 15 14 13 12 11 10 12 13 13 13 12 13 14 15 16 16 17 17 18 16 16 17 18 18 18 18 19 19 18 18 18 18 17 17
4 4 4 2 2 3 3 3 1 2 2 2 2 2 3 4 5 4 4 3 2 1 2 1 0 1 1 0 1 1 1 0 3 3 5 13 14 15 21 24 24 23 22 19 17 15 15 14 14 14 13 11 10 12 13 13 13 13 12 14 16 17 15 14 14 12 11 10 11 12 11 13 13 13 13 13 15 16 16 17 17 17 16 17 18 17 17 17 17 17 17 17 17 17 17 17 16
4 5 4 3 2 1 3 2 2 2 2 3 1 3 4 5 5 4 2 1 3 1 1 1 1 0 1 0 1 1 2 1 5 5 6 14 14 17 22 24 24 22 22 20 18 17 15 15 15 14 12 11 11 12 13 13 13 12 12 13 15 17 15 15 14 12 11 12 12 12 10 12 12 12 12 12 15 17 16 16 16 16 17 17 17 17 17 16 16 15 15 16 16 16 16 17 17
5 8 8 7 4 1 3 1 1 1 3 3 2 3 4 5 5 6 4 0 3 2 2 1 1 2 0 0 1 2 2 3 6 6 9 15 15 18 23 24 23 22 22 20 19 17 16 16 15 14 12 12 11 12 13 12 12 12 12 12 14 17 16 14 14 12 12 13 13 13 11 11 10 11 12 12 16 17 16 16 16 16 16 16 16 16 16 15 15 15 15 15 16 17 17 16 16
5 5 6 7 3 2 3 2 3 2 1 3 1 3 3 5 4 7 5 1 1 1 2 1 1 2 1 1 0 2 1 4 7 5 10 15 16 19 23 23 21 20 21 20 19 17 17 16 16 14 13 13 11 11 12 12 12 12 12 12 14 16 16 15 14 13 12 12 13 13 11 10 10 11 12 14 17 16 16 16 16 16 16 16 15 15 15 14 13 14 15 14 15 16 16 16 16
6 2 1 3 2 3 3 2 3 1 0 2 2 3 2 4 4 7 6 2 1 1 1 2 1 2 1 0 1 2 0 5 6 5 12 15 17 19 22 24 20 19 20 20 19 17 18 17 17 16 14 13 12 11 12 12 12 12 11 12 12 14 15 15 14 12 10 11 11 11 11 11 10 11 13 15 17 16 15 15 15 15 15 15 14 14 14 14 13 13 14 14 15 15 15 15 15
6 3 0 2 2 2 2 1 1 2 2 3 2 4 2 3 2 6 7 2 1 2 2 3 2 0 1 1 1 2 1 6 5 7 13 14 17 18 20 23 21 19 19 20 19 18 18 17 18 16 15 14 12 12 12 13 12 11 11 11 12 13 14 15 15 11 9 10 11 11 11 11 11 12 13 15 17 16 15 14 15 14 14 14 14 14 13 13 12 13 14 14 14 14 14 14 14
5 4 1 2 2 2 2 1 1 1 3 3 3 4 2 3 2 4 5 2 1 1 3 3 1 1 2 2 0 1 2 6 6 11 13 13 17 16 18 22 22 20 19 21 20 19 19 18 18 17 15 14 12 12 12 12 12 11 11 11 11 12 14 16 15 11 10 10 9 10 10 10 12 12 13 15 16 15 14 13 14 14 13 14 13 13 13 12 12 12 13 13 13 13 13 13 14
3 4 2 3 2 2 1 2 3 2 4 3 2 4 3 4 3 3 1 1 1 1 3 1 2 3 2 1 1 1 3 7 9 15 14 13 17 16 18 20 20 19 20 21 19 19 19 18 17 16 15 13 13 12 11 12 12 11 11 11 11 11 13 15 15 11 9 9 8 9 10 11 11 13 14 14 15 15 13 13 13 13 13 13 13 12 12 12 11 12 12 12 12 13 13 13 13
2 2 3 3 2 2 2 3 3 4 5 2 1 2 3 5 4 3 2 2 1 2 4 3 2 4 2 2 1 1 3 8 10 15 15 14 17 17 18 18 18 18 19 20 19 19 18 18 17 16 15 14 13 12 11 11 11 11 10 10 10 11 12 12 14 12 8 7 8 10 11 10 10 12 13 12 14 15 13 12 12 11 13 14 13 11 11 11 11 11 11 11 12 12 12 12 12
3 1 4 2 2 2 2 3 2 3 4 1 2 1 3 5 3 5 5 2 1 3 4 4 3 3 2 2 1 2 4 11 13 16 15 15 17 18 17 17 17 16 18 19 19 18 18 18 16 16 15 14 13 11 11 10 10 10 10 9 9 10 11 11 12 12 9 8 10 11 10 10 10 10 10 11 13 14 13 12 11 11 12 13 12 11 11 11 10 9 9 10 12 12 11 12 12
3 2 4 2 1 1 3 2 1 1 1 3 1 2 3 2 3 4 6 3 4 5 2 2 4 3 2 1 1 2 5 12 15 16 15 16 17 17 16 16 16 16 17 17 18 18 18 18 17 17 15 14 13 12 11 10 9 9 10 9 8 9 9 10 10 10 9 9 12 12 9 9 8 8 8 9 10 13 13 12 10 10 12 13 12 11 9 9 9 8 9 10 11 12 11 11 12
3 2 4 3 1 0 3 1 1 4 3 3 2 3 3 1 3 4 5 4 5 4 1 1 2 1 2 2 1 3 9 15 17 17 16 17 17 16 16 15 15 15 16 17 18 17 18 19 18 17 16 15 14 12 12 11 10 9 10 9 8 8 8 9 9 8 7 8 11 11 10 9 8 6 7 7 8 11 13 11 9 10 12 13 12 10 9 8 9 9 10 10 11 11 11 12 11
3 3 4 3 1 1 3 2 2 3 4 3 1 2 4 1 3 3 3 3 1 1 1 2 1 1 2 3 1 2 12 18 18 18 18 19 17 16 14 14 15 15 16 17 17 16 17 19 18 18 17 16 15 13 13 12 11 10 10 9 8 8 8 9 8 8 7 7 9 9 9 8 8 6 6 7 6 9 12 11 10 9 12 12 11 10 8 8 9 10 10 10 11 11 11 11 11
2 4 4 2 1 2 4 4 4 3 3 3 2 3 6 1 1 1 1 3 2 1 2 2 1 1 2 2 0 4 16 19 19 20 19 19 18 16 14 13 14 14 15 16 17 16 16 18 18 18 18 17 16 14 13 13 12 10 10 10 9 8 8 8 8 8 8 7 7 8 8 7 6 5 6 6 5 10 13 12 10 8 10 12 11 9 9 9 9 9 10 10 10 10 10 10 10
4 3 3 1 2 3 5 7 6 4 1 4 4 4 7 3 2 1 1 2 2 1 3 2 1 3 4 3 1 8 18 20 21 22 21 20 19 18 16 16 15 15 17 17 16 17 17 18 19 19 19 18 16 15 14 13 13 12 11 11 10 9 8 8 8 8 8 8 8 8 8 7 6 5 5 5 5 11 14 12 10 8 8 11 12 10 9 9 9 9 9 9 9 9 9 10 10
3 3 3 3 5 4 5 7 6 2 1 4 4 2 4 5 4 2 2 2 3 1 3 4 4 4 4 4 3 13 20 21 22 23 22 21 20 20 18 18 17 16 18 18 17 18 18 18 19 19 19 18 17 16 15 14 15 14 13 12 12 11 10 9 9 8 8 8 8 8 8 7 7 6 5 6 5 10 14 12 10 9 7 10 12 11 10 10 10 9 9 9 9 9 9 9 9
2 3 2 4 6 3 3 5 5 3 3 6 5 2 1 3 3 2 3 1 1 3 5 1 4 7 5 3 6 16 19 20 22 21 21 20 21 21 21 22 21 19 19 19 18 18 18 17 18 20 19 19 18 18 16 15 16 15 15 14 13 13 12 11 10 9 9 9 8 8 8 8 7 7 6 6 6 9 14 13 10 9 8 10 13 12 12 10 9 9 9 9 9 9 8 8 8
2 3 3 5 2 1 2 4 4 3 4 6 6 5 1 3 3 2 5 4 2 5 7 7 9 8 6 4 9 16 18 19 20 20 19 19 20 21 22 24 24 22 19 19 19 18 19 19 18 18 20 21 20 19 18 16 16 17 16 16 15 14 13 13 11 10 10 9 9 8 8 8 8 7 7 7 7 8 13 14 12 11 10 11 12 12 11 9 9 10 10 9 9 8 8 7 7
2 1 3 3 2 1 2 3 3 2 3 5 7 6 4 3 2 2 7 5 5 5 5 8 9 7 7 8 13 15 16 18 19 20 20 20 21 21 22 23 23 22 20 20 21 21 21 21 19 18 20 22 22 20 19 18 17 18 18 18 17 16 15 14 13 12 11 10 10 9 9 9 9 8 8 7 8 9 12 14 14 12 11 11 12 12 10 8 9 11 10 10 10 9 8 8 8
2 1 0 2 2 1 1 2 2 3 6 6 6 4 3 4 1 1 6 8 6 3 3 5 6 5 8 10 15 14 14 17 20 23 24 24 25 25 24 23 23 23 23 24 23 23 23 21 21 21 21 22 23 22 21 21 19 18 19 20 19 18 17 16 15 14 13 12 11 11 10 10 9 9 9 8 9 9 11 13 14 13 12 12 12 13 12 10 11 11 11 11 10 10 10 9 9
4 2 0 2 1 1 3 2 2 4 6 5 3 2 3 5 3 2 4 10 5 2 3 3 3 7 11 11 14 15 16 20 23 26 27 27 27 27 26 24 23 23 23 25 24 25 25 23 23 23 22 21 23 24 23 22 21 19 20 21 21 20 19 17 17 16 15 14 13 12 11 10 10 10 10 10 9 10 11 12 13 13 13 13 12 13 14 13 13 13 12 12 11 11 10 10 10
3 3 2 3 1 2 2 1 2 3 4 2 4 4 1 4 3 1 7 10 4 5 3 2 4 6 8 9 12 14 15 19 20 21 23 24 24 24 24 24 24 23 24 26 25 25 26 26 24 22 21 21 22 24 25 24 24 21 21 22 22 22 21 19 18 17 17 16 15 14 13 12 12 11 11 11 11 11 12 13 13 14 14 14 13 13 14 15 14 14 13 13 12 12 11 11 11
3 4 3 4 1 3 1 2 3 2 1 2 5 2 3 2 1 3 8 7 5 3 2 3 5 6 6 7 10 12 13 16 18 19 21 21 21 22 25 26 25 27 27 27 26 26 26 26 26 23 21 22 23 25 25 26 25 23 22 23 23 23 23 22 20 19 19 18 17 16 15 14 13 13 12 12 12 12 13 14 14 15 15 15 15 14 14 15 16 15 14 14 13 13 12 12 11
4 6 6 5 2 3 1 2 3 2 1 2 5 3 3 1 1 4 6 4 4 0 2 1 3 6 7 6 7 11 12 15 17 17 17 18 20 24 26 27 29 30 28 27 27 26 25 26 27 25 23 23 25 25 26 26 26 25 23 24 25 24 24 24 23 21 20 19 19 18 17 16 15 14 14 14 14 14 14 15 15 15 16 16 16 16 14 15 16 16 15 14 14 13 13 13 12
5 7 6 5 4 2 4 4 3 3 1 1 5 4 2 2 1 6 4 5 3 2 1 2 2 4 5 5 5 8 10 12 14 15 17 21 26 29 29 31 33 32 30 29 28 27 26 26 26 27 26 25 26 27 27 26 26 26 25 25 25 25 25 25 24 23 22 20 20 19 19 18 17 16 16 16 15 16 16 16 16 17 17 17 17 17 16 15 16 16 16 15 14 14 14 14 13
4 4 5 5 6 3 4 2 3 2 2 2 3 2 3 2 5 8 3 5 3 3 1 3 3 4 3 4 4 6 9 10 12 17 22 26 29 29 30 33 33 32 32 30 27 26 27 27 26 26 26 26 27 28 28 27 27 26 27 27 26 26 26 25 26 25 24 22 20 20 19 19 18 17 18 18 18 18 18 17 17 18 18 18 18 18 17 17 17 17 17 16 16 16 16 16 15
3 4 4 2 5 3 4 2 3 1 1 4 1 1 6 6 9 7 3 4 3 1 3 4 3 4 3 4 4 5 8 11 16 22 25 26 26 26 29 31 30 31 31 29 28 28 28 27 27 26 26 26 28 28 28 28 28 27 27 27 27 27 26 26 26 26 25 24 22 21 20 19 18 18 19 20 20 20 20 19 19 19 19 19 19 19 19 18 18 18 18 18 17 17 17 17 17
3 3 2 2 2 4 5 3 2 2 0 4 3 2 6 7 8 5 4 3 1 3 5 4 4 4 4 4 4 6 8 13 19 22 24 25 26 27 28 29 29 30 30 30 31 30 28 28 27 27 28 27 27 28 28 29 28 28 28 28 28 28 27 27 27 27 27 26 25 24 22 23 22 20 20 21 22 23 23 20 19 20 20 20 20 20 20 20 20 20 20 19 19 19 19 19 19
3 2 0 2 3 5 6 2 2 2 1 5 5 3 6 7 8 5 4 2 4 4 5 5 5 5 5 4 5 6 7 13 19 23 25 26 27 29 30 30 30 30 31 32 32 30 30 29 28 28 29 29 29 28 28 29 29 29 28 29 28 27 26 27 27 28 29 29 29 27 25 24 26 24 21 22 23 24 25 23 20 20 21 22 22 21 21 21 22 22 22 22 22 22 22 22 21
3 2 3 2 3 3 4 1 2 1 1 3 2 3 3 3 5 5 4 3 4 2 6 6 6 6 5 5 5 6 7 9 14 22 29 30 30 32 32 33 33 32 32 32 32 32 32 31 31 30 30 30 30 29 28 28 29 29 29 28 29 29 29 28 28 27 27 28 30 31 29 25 24 26 25 26 27 26 25 24 22 20 21 23 24 24 23 24 24 25 25 26 26 24 24 25 24
2 2 3 2 3 3 2 2 3 4 2 2 2 2 6 5 6 7 5 1 0 4 6 6 6 5 5 5 5 6 7 7 10 20 28 30 32 33 34 34 33 33 32 32 32 33 33 32 33 33 32 30 30 30 29 28 27 28 28 28 29 30 30 29 28 29 29 27 28 29 30 28 26 27 26 26 29 29 26 23 22 20 23 26 27 27 27 27 28 28 28 28 28 27 26 26 25
5 3 3 2 2 3 3 3 2 3 2 3 1 3 9 10 9 9 6 2 4 7 6 6 7 6 6 5 6 6 7 9 13 19 23 25 28 30 32 33 32 33 32 32 32 32 33 33 33 33 33 32 30 30 29 29 28 27 27 28 29 30 29 27 26 28 29 30 29 26 26 28 30 32 32 29 29 31 29 25 22 19 25 30 30 30 30 30 31 31 31 30 29 29 28 26 26
9 6 5 5 3 4 5 4 4 1 2 3 5 5 8 9 10 10 6 2 3 7 6 6 7 7 7 6 6 7 7 10 13 15 17 19 23 24 26 27 29 30 31 31 32 32 33 33 33 34 34 33 31 29 28 29 29 29 28 29 30 32 32 31 29 28 27 28 28 27 26 27 28 29 31 32 32 34 32 29 27 25 29 32 33 33 32 33 33 33 32 31 30 30 28 26 25
9 6 4 4 4 3 4 3 5 1 3 4 4 4 8 9 11 12 7 1 4 8 8 8 8 7 7 7 7 8 9 9 8 10 12 13 15 17 18 19 21 24 27 29 31 32 33 33 34 34 34 33 31 30 29 29 30 30 30 31 32 32 32 31 31 31 30 29 28 29 30 30 29 27 27 28 30 33 33 31 31 31 31 32 33 34 32 32 33 34 32 31 30 30 30 28 27
6 6 5 2 3 3 2 2 3 2 2 3 2 3 9 10 11 12 7 3 6 9 9 9 9 8 7 7 9 9 7 7 6 9 11 11 11 12 14 16 19 22 24 26 28 30 31 31 33 34 33 32 32 32 31 31 32 31 30 31 31 30 30 30 30 30 30 30 29 29 30 30 30 29 29 27 25 28 34 36 34 32 31 30 32 33 32 31 33 34 33 32 31 30 30 30 29
5 4 5 2 2 2 3 2 3 3 1 3 3 4 9 10 10 11 9 7 8 7 7 8 7 8 8 7 8 7 7 7 6 8 11 12 12 12 14 17 20 21 22 23 24 26 27 29 31 31 31 31 31 31 31 31 31 30 29 28 27 27 28 28 28 28 27 28 28 28 28 28 29 31 31 29 27 29 32 34 34 32 30 30 32 33 32 32 33 34 34 34 32 30 29 30 31
4 4 5 2 2 2 2 2 2 3 2 1 2 3 7 7 6 9 8 6 7 6 6 8 7 8 10 8 6 6 8 9 8 7 9 12 13 12 14 16 17 19 21 22 22 23 24 26 27 28 29 29 28 28 30 30 28 27 27 27 26 26 26 26 26 27 28 29 29 29 29 29 29 31 31 31 33 32 30 29 31 32 31 30 32 33 33 33 34 35 35 35 34 31 30 31 33
1 3 6 3 4 4 3 2 0 2 3 2 2 4 6 4 4 7 5 4 5 5 5 6 6 6 8 8 7 7 8 9 9 9 8 9 12 12 11 12 14 16 18 20 20 20 21 21 22 23 25 25 26 26 26 27 27 26 25 25 24 24 24 25 25 26 29 30 31 31 30 30 30 30 30 30 31 31 30 31 32 34 34 31 30 31 34 35 36 38 37 37 37 34 32 33 34
2 3 6 6 7 6 3 2 3 3 3 3 3 2 5 5 4 7 4 6 7 5 5 6 6 5 5 6 7 7 6 7 8 9 7 8 11 12 10 9 10 13 14 14 15 16 17 17 17 19 20 21 23 23 23 24 26 26 25 24 24 24 23 24 26 28 28 29 30 30 30 30 30 31 30 30 30 29 32 34 35 35 34 31 27 29 34 35 35 37 38 38 38 37 34 31 32
2 4 5 7 7 8 7 5 4 2 1 2 3 2 4 6 6 6 4 7 10 7 5 6 6 5 4 4 5 6 6 6 5 6 7 8 10 9 6 3 4 6 8 9 10 11 13 14 14 15 16 18 19 20 21 22 24 26 25 25 25 25 24 25 27 28 27 28 28 29 29 30 30 30 31 31 31 31 32 33 33 32 33 34 33 34 36 36 36 38 39 40 39 38 35 31 31
3 3 6 9 8 8 7 6 4 2 2 2 3 3 1 5 6 6 5 6 9 8 6 7 6 5 5 5 5 5 5 5 4 4 4 4 5 5 3 2 3 1 3 5 6 6 8 10 11 12 12 14 15 17 18 20 22 24 25 25 25 25 26 26 26 25 25 26 27 27 28 29 29 30 30 30 31 31 31 31 31 31 33 35 36 37 38 37 37 38 39 40 39 38 38 37 35
3 2 6 7 7 7 6 6 4 1 1 2 4 3 1 5 6 5 5 5 7 8 7 7 6 6 6 5 6 6 5 4 2 3 3 4 4 4 4 6 6 6 6 6 6 6 6 7 8 9 9 10 11 13 15 17 19 21 22 23 24 25 26 26 25 24 24 24 25 26 26 27 28 29 30 30 31 31 31 32 33 34 34 33 33 36 38 38 38 38 40 40 40 40 40 40 37
3 5 7 6 6 6 5 5 3 3 2 4 4 2 1 4 6 4 3 2 6 7 6 6 5 5 5 5 6 7 6 5 3 2 3 4 6 7 8 9 9 10 9 9 8 8 8 8 7 7 7 7 8 10 12 13 15 17 19 21 23 24 24 25 25 25 24 24 24 25 25 26 27 27 28 29 30 32 33 34 34 33 33 34 34 35 36 38 38 38 39 39 39 40 39 38 37
7 6 7 7 6 5 4 3 4 4 2 5 4 2 1 2 6 4 2 3 5 3 2 3 5 5 5 5 6 6 6 5 4 4 4 5 7 9 11 12 12 12 12 11 11 11 10 9 8 7 6 6 6 7 8 10 12 14 17 19 21 22 22 23 24 25 25 25 25 26 25 25 25 26 26 27 28 29 30 32 32 32 33 34 34 32 31 32 33 35 36 37 38 39 39 38 38
6 4 5 5 4 4 4 4 3 2 4 6 3 2 1 2 5 3 4 5 5 4 3 2 6 6 5 5 5 5 5 4 4 4 4 6 8 11 13 14 14 14 13 13 13 12 11 10 8 7 6 5 4 5 5 7 9 11 14 16 18 19 21 22 24 25 25 25 26 26 25 25 25 25 25 26 26 26 28 29 31 32 34 35 34 32 30 28 28 28 29 32 34 37 39 38 37
5 5 6 5 2 2 2 3 1 3 5 3 2 1 2 5 7 6 8 8 7 7 7 5 6 6 5 6 6 5 4 4 4 3 4 5 7 10 13 14 15 15 15 14 14 13 12 11 9 8 6 4 3 2 3 5 7 9 11 13 15 17 18 21 22 23 24 24 24 24 24 25 25 25 25 26 26 25 26 28 29 31 33 34 35 35 35 33 31 30 28 29 31 34 36 37 39
4 6 6 5 3 2 2 3 2 3 4 3 3 2 2 4 6 8 11 10 6 6 7 6 6 5 6 6 5 5 4 4 4 3 4 5 7 10 13 15 15 16 16 15 15 14 13 12 11 9 7 5 3 2 2 4 5 7 9 11 12 14 16 18 20 21 22 22 23 24 25 24 25 25 25 25 24 24 25 25 26 28 29 30 31 32 33 33 33 33 33 33 33 34 34 36 39
3 3 5 5 5 5 4 4 3 4 2 2 3 2 3 3 3 6 8 7 4 4 6 6 4 5 6 5 4 3 4 4 4 4 5 6 9 13 15 17 18 17 17 17 16 15 14 13 12 10 8 6 4 2 0 2 3 5 7 9 10 12 14 15 17 19 20 21 22 23 24 24 24 24 23 23 23 23 24 24 24 25 25 26 26 27 28 29 30 31 33 34 34 33 32 33 36
1 2 5 3 4 5 4 3 5 4 0 1 2 3 4 3 5 6 3 4 5 3 4 4 3 4 3 2 4 4 5 5 4 5 5 7 11 15 16 17 17 18 18 18 18 17 16 15 14 13 11 9 8 6 4 3 3 3 4 6 8 10 12 14 15 16 17 18 20 21 22 22 23 23 23 22 22 22 22 22 23 24 24 24 25 25 26 28 29 31 33 34 35 33 31 33 34
2 2 3 4 3 8 6 2 0 3 1 2 1 3 5 3 5 6 3 2 5 3 2 3 3 3 2 5 5 5 4 4 4 4 4 7 11 13 14 16 16 18 19 19 19 18 17 16 15 14 13 12 10 8 7 6 5 4 4 5 6 8 10 12 13 14 15 16 18 19 20 21 21 22 22 22 22 22 22 22 22 23 22 23 24 24 26 27 28 30 32 33 34 33 32 34 34
5 3 5 3 3 5 5 2 3 3 2 4 1 4 5 1 3 6 4 3 7 5 3 3 1 2 5 6 6 4 3 2 3 3 4 7 11 13 15 17 18 19 19 20 19 18 16 16 15 14 14 12 11 9 8 7 6 6 6 6 7 8 10 11 12 13 13 14 16 17 18 20 20 20 21 22 22 23 23 23 23 23 23 23 23 24 25 25 26 28 30 31 31 30 31 33 33
3 4 3 4 3 2 2 2 1 1 2 4 3 3 3 4 4 4 2 7 8 6 5 4 5 6 7 6 6 4 2 1 3 4 5 7 11 14 16 17 18 19 19 19 18 17 16 16 15 15 15 14 12 11 10 9 9 9 9 9 9 9 9 10 11 11 12 13 13 14 16 17 18 19 20 21 22 23 23 23 24 24 24 24 24 24 25 25 26 28 29 30 31 29 30 32 32
3 2 2 2 3 4 2 2 4 3 3 3 3 3 3 6 6 5 8 9 8 7 5 5 7 8 8 7 7 5 4 3 3 5 4 7 11 14 15 16 17 18 18 18 18 18 18 17 17 17 16 16 15 14 14 12 11 11 11 11 10 10 9 9 10 10 11 12 12 13 14 15 16 17 19 20 21 22 23 23 23 24 24 25 26 26 26 26 26 28 29 30 30 30 30 32 33
2 3 4 2 2 2 2 0 2 3 4 3 2 3 5 6 5 7 9 6 6 7 7 7 8 8 8 8 7 6 5 5 4 5 4 7 11 13 14 15 16 18 19 20 20 20 20 19 19 19 18 18 17 17 16 15 14 13 13 13 13 12 11 11 11 11 11 12 12 13 13 14 15 15 17 19 20 21 22 23 23 24 24 25 26 26 26 26 27 28 30 31 31 31 32 33 34
5 5 6 6 4 4 3 2 1 2 3 4 4 3 7 6 4 6 7 5 5 6 7 8 8 8 8 7 6 6 5 4 3 4 4 6 10 12 13 16 18 20 21 21 21 21 21 21 21 20 19 20 19 18 18 17 16 16 15 15 14 14 13 13 13 13 13 13 13 13 13 14 15 15 16 18 19 20 21 22 23 24 25 26 27 27 27 27 28 29 30 31 32 32 33 34 34
Wind_Direction
349 353 356 14 23 102 33 47 97 336 78 104 290 197 219 223 254 169 189 244 159 228 213 163 148 141 129 157 172 163 120 151 167 118 154 289 160 157 158 158 161 163 160 156 158 157 158 154 143 135 124 121 119 110 106 103 103 105 109 107 104 104 105 106 105 105 102 92 92 101 101 98 95 94 92 90 90 90 91 90 89 88 86 86 88 89 85 82 82 82 82 82 82 82 84 87 86
355 357 6 44 32 52 221 50 105 332 50 124 254 181 250 309 191 189 185 194 202 270 254 122 117 96 51 83 120 127 80 76 172 157 50 130 147 156 158 157 162 165 161 158 160 160 158 153 144 135 126 128 121 109 107 106 104 104 112 112 108 105 106 108 105 108 109 101 96 98 98 95 92 93 91 88 90 92 91 91 90 88 87 90 91 89 86 85 83 82 84 84 83 84 85 87 85
8 6 22 76 35 47 102 40 87 44 86 195 261 229 217 157 199 208 197 211 220 245 74 103 103 83 43 48 106 120 93 88 179 202 107 140 150 162 161 159 165 165 162 160 161 162 157 153 146 138 133 133 119 110 112 112 109 105 110 114 115 113 110 108 106 108 105 102 102 98 96 95 93 93 90 88 93 96 95 94 92 90 90 94 94 92 90 88 83 81 86 87 86 86 87 89 88
33 39 40 91 62 41 62 42 117 125 138 204 273 237 205 183 197 212 213 220 191 99 57 95 97 108 42 293 178 100 117 215 177 172 136 157 162 163 160 160 166 165 164 162 162 164 158 154 150 142 139 133 121 118 119 119 113 107 108 115 120 118 113 110 109 107 100 102 106 103 98 99 98 93 84 80 94 100 99 97 95 93 93 95 97 95 91 87 85 84 85 88 89 90 92 93 92
65 66 53 83 91 50 90 70 101 109 185 184 130 242 224 199 184 169 143 189 198 187 78 111 102 272 7 187 171 112 167 149 163 174 155 166 168 159 159 162 166 167 167 164 164 165 161 158 153 147 143 135 129 126 125 124 117 109 108 115 123 120 116 113 111 109 104 104 110 113 105 101 99 90 78 75 98 106 102 101 98 97 97 98 98 96 94 92 92 87 85 89 93 95 97 96 95
93 79 58 71 90 110 126 110 156 180 222 169 123 255 226 200 184 145 108 13 236 228 184 168 215 192 55 272 275 159 163 121 149 178 167 166 168 160 160 163 166 168 168 166 167 167 164 162 157 154 149 142 137 133 130 127 119 112 108 112 122 121 117 113 111 112 106 103 110 115 111 106 99 88 77 84 106 109 104 103 100 100 100 100 99 99 98 97 93 89 87 90 96 99 100 100 100
117 98 45 70 72 33 115 166 199 223 239 165 170 260 229 202 183 135 131 195 225 278 182 212 242 143 141 283 256 178 169 134 139 164 172 166 166 162 162 165 166 168 169 168 168 168 167 167 162 161 157 150 146 141 135 130 123 115 109 110 122 123 119 116 112 111 108 107 113 115 114 111 102 90 81 97 111 109 106 104 103 103 102 102 103 103 100 97 95 93 92 93 98 102 104 105 106
101 123 355 89 57 24 94 133 197 215 289 227 232 259 250 197 175 139 156 191 180 255 229 231 238 122 215 19 126 205 245 154 144 147 167 166 164 163 165 168 168 167 170 170 170 171 170 170 169 167 163 157 154 148 141 136 129 120 114 110 120 126 123 120 113 107 108 111 114 114 113 107 103 97 87 102 114 110 109 107 107 106 104 105 103 103 100 97 96 97 97 98 100 103 108 110 111
64 51 12 93 96 44 49 58 204 240 265 265 247 257 261 171 165 135 160 228 279 222 254 236 213 171 214 70 101 250 194 165 158 144 161 170 166 163 166 171 173 169 170 172 172 173 173 174 174 172 168 165 160 153 148 141 134 126 120 114 116 125 129 126 117 111 115 116 116 112 108 106 106 102 93 104 115 113 113 110 108 106 107 109 107 104 103 100 96 99 100 100 102 106 112 114 117
42 28 125 81 105 81 7 283 234 262 254 259 253 247 185 149 122 110 154 215 271 191 250 245 158 79 148 121 206 257 157 166 158 149 158 173 169 165 169 173 178 175 171 173 175 176 175 177 177 176 173 171 165 157 153 146 139 132 125 120 116 123 133 128 117 115 119 120 121 112 108 115 114 109 103 107 116 118 116 114 110 109 110 110 110 108 106 104 99 100 103 104 107 109 113 118 122
40 1 95 81 82 122 182 208 263 273 273 286 268 243 183 148 114 88 104 193 188 205 238 219 141 136 97 322 227 182 157 163 162 157 158 172 174 169 170 174 181 180 175 174 176 178 177 178 180 179 177 175 170 163 159 151 144 139 131 127 120 121 133 131 120 119 123 124 131 122 115 121 121 117 112 111 119 123 120 118 117 116 118 114 112 112 110 107 104 104 107 109 111 109 110 116 121
90 338 65 89 131 173 188 172 270 289 303 316 144 243 177 133 121 154 170 175 183 218 236 205 173 140 90 314 224 260 178 165 164 162 161 171 177 174 172 174 179 182 180 178 178 180 180 180 182 182 181 180 177 170 164 156 148 145 136 130 125 123 132 138 129 124 126 126 134 132 125 126 128 126 121 116 122 126 123 125 127 121 122 120 114 115 112 110 111 110 112 113 112 112 111 113 119
120 152 90 102 166 154 153 147 282 322 329 268 158 213 157 130 164 195 159 157 173 173 244 212 172 107 121 258 279 302 195 169 162 163 167 170 177 177 174 175 180 184 183 182 182 183 183 183 185 185 185 185 182 177 170 163 157 150 141 134 129 127 129 141 141 133 131 126 131 137 136 134 136 134 127 121 125 130 130 137 138 124 123 123 119 120 119 117 119 118 116 114 112 114 116 120 124
134 147 114 126 96 138 153 127 297 121 260 256 166 174 169 145 179 178 141 162 215 188 269 201 156 117 148 228 309 295 191 170 163 164 169 170 177 178 177 181 184 186 185 187 186 186 186 185 189 188 189 189 187 184 179 175 169 157 148 143 135 135 132 138 149 146 140 131 136 147 153 151 149 142 137 129 130 136 140 149 144 129 128 126 125 129 129 127 124 121 116 115 117 119 122 128 130
129 123 93 105 44 172 161 114 137 140 224 220 133 165 162 162 136 141 161 173 232 220 323 174 162 187 178 152 226 249 180 170 165 165 168 169 176 179 182 187 190 191 189 191 189 189 189 190 192 191 193 194 192 190 187 185 180 170 159 156 148 145 141 142 150 154 153 141 144 157 163 163 165 161 154 145 138 140 146 156 153 138 133 130 131 133 135 135 126 121 120 119 123 125 127 132 134
118 110 74 85 94 205 168 164 130 129 244 207 146 175 142 221 128 138 209 163 233 291 13 213 183 277 173 137 238 206 164 168 166 164 165 167 174 179 185 190 194 196 193 195 194 192 193 195 196 194 196 198 199 197 193 192 188 181 172 167 162 157 154 153 153 154 161 157 153 162 167 168 169 167 162 157 146 146 153 162 168 151 134 134 135 135 137 135 127 124 125 125 129 133 135 139 139
76 81 71 76 158 207 182 174 175 159 239 226 249 196 142 208 257 164 228 101 139 271 321 250 194 228 195 148 3 143 157 167 167 163 163 167 173 177 185 193 193 196 196 198 198 197 197 199 200 199 201 202 204 205 200 197 196 191 183 178 174 170 168 165 161 160 166 170 167 167 172 175 172 171 167 165 148 150 161 170 179 165 140 140 139 141 142 133 132 132 131 131 136 141 142 144 145
60 77 99 143 179 207 186 178 194 167 186 195 202 197 153 173 223 152 116 47 24 291 297 301 297 251 234 256 258 155 159 166 168 165 164 168 174 177 185 195 196 197 198 200 201 202 201 202 205 204 204 205 207 210 207 204 204 200 192 187 184 183 181 177 173 169 170 175 178 176 177 180 183 186 181 178 150 151 169 178 183 180 157 149 146 147 146 141 144 142 139 141 143 146 146 148 151
84 108 112 204 202 208 196 176 182 158 119 157 166 197 166 176 172 136 186 300 8 177 275 331 324 269 230 268 208 163 163 166 170 169 169 173 179 182 185 193 198 199 200 201 202 204 205 205 209 209 207 208 210 212 213 211 210 206 199 196 193 192 191 188 184 180 179 180 182 184 183 185 189 192 191 190 164 153 173 187 185 185 175 159 157 155 156 159 158 152 151 153 151 151 154 156 161
138 119 114 236 215 219 230 187 188 193 153 138 147 157 161 190 163 155 185 193 3 205 235 240 266 252 212 242 173 166 168 168 173 174 175 180 184 188 189 193 198 201 201 201 202 204 207 207 210 213 212 211 212 213 215 215 214 212 206 203 201 199 198 196 193 191 187 185 186 188 189 190 191 195 194 194 184 163 175 191 190 186 184 174 174 170 171 174 163 159 163 164 162 163 167 172 177
141 122 171 233 209 178 246 210 207 196 149 138 136 124 159 215 160 164 156 146 273 243 227 205 221 224 193 194 174 170 172 171 176 180 182 186 190 195 198 200 202 205 205 205 206 206 208 211 211 213 215 215 216 216 216 218 217 215 213 210 208 205 203 202 200 200 198 193 192 192 194 196 195 198 199 198 196 178 178 193 199 197 193 187 191 190 187 182 165 169 177 176 177 178 183 187 189
118 153 183 200 155 125 260 243 212 161 110 112 126 143 178 164 130 157 159 178 236 239 232 218 222 209 176 173 172 173 176 176 180 184 188 191 196 200 203 206 207 208 209 212 214 213 212 214 214 215 217 218 219 219 218 222 221 216 217 216 214 212 208 208 206 205 205 202 200 200 200 201 201 202 204 204 203 194 187 195 204 208 206 199 201 206 203 188 179 186 189 188 189 190 195 195 195
133 256 111 186 195 118 297 280 216 144 118 132 150 172 138 120 198 167 176 214 220 218 244 246 248 200 165 159 166 172 179 183 186 189 191 193 198 202 204 206 208 209 210 215 219 219 219 216 216 219 219 219 220 222 220 222 223 219 219 219 220 219 214 211 210 211 211 210 209 209 209 209 208 208 209 211 209 206 200 201 207 212 214 211 207 210 210 198 194 199 199 199 200 199 202 201 198
105 162 156 167 190 334 302 280 197 136 136 171 170 126 116 155 200 87 221 237 223 253 292 284 250 168 157 155 171 181 185 190 193 195 195 196 200 202 204 206 208 211 212 217 220 223 225 221 220 221 222 221 220 223 223 223 225 223 223 222 223 225 223 217 214 213 215 215 215 216 217 219 218 217 217 217 216 213 210 210 213 216 220 219 214 212 212 208 204 207 209 208 209 208 208 206 203
102 162 168 130 117 305 311 30 113 123 132 160 117 111 200 195 171 105 248 251 263 286 322 79 126 142 164 168 181 189 190 197 199 199 200 202 204 203 207 208 209 212 215 218 220 223 227 227 225 221 221 222 222 224 225 225 227 225 224 224 225 229 229 226 221 217 218 219 220 220 221 224 225 225 224 223 222 219 217 218 220 223 225 225 222 216 213 214 213 212 214 216 216 216 215 213 211
179 143 139 121 46 318 345 76 58 82 99 88 117 93 316 219 156 274 252 261 292 295 39 98 132 149 193 186 189 192 194 201 200 200 203 205 205 206 211 211 211 214 217 220 221 223 226 229 229 222 219 222 225 226 227 227 227 227 224 224 226 230 233 232 228 221 220 221 221 223 225 227 229 230 231 229 228 225 222 223 226 228 230 230 229 226 218 216 218 219 219 220 221 220 219 218 218
143 118 111 96 38 323 5 100 22 5 37 39 148 156 304 293 341 265 255 293 308 303 71 7 160 178 204 202 205 201 202 205 200 199 200 204 208 212 213 213 215 217 218 220 222 223 225 229 231 229 224 224 227 228 230 230 229 229 227 226 227 229 232 236 234 228 225 224 224 226 228 230 232 234 235 235 233 231 229 228 231 232 233 233 232 232 228 221 220 223 225 226 226 225 224 223 223
109 124 110 31 1 14 34 77 9 348 74 16 140 144 309 13 265 233 245 318 324 145 116 326 205 220 221 216 225 217 222 215 203 201 199 204 210 213 214 215 217 218 219 220 222 222 223 227 230 233 230 227 229 230 231 232 232 234 232 229 229 230 230 235 238 236 233 231 229 227 228 231 234 236 237 238 238 236 235 233 234 235 235 236 235 235 234 228 223 223 227 229 229 229 228 227 227
102 117 120 351 357 35 10 39 318 338 115 288 128 112 292 220 234 242 266 330 7 103 261 298 241 258 261 240 244 230 232 221 211 214 212 213 214 214 217 219 219 220 222 221 222 223 223 225 227 232 233 232 231 231 233 234 233 236 237 235 233 233 232 234 238 241 243 242 240 236 234 234 235 241 243 241 241 239 238 237 236 238 238 237 237 236 235 233 228 225 226 227 228 229 229 230 229
112 70 108 38 10 354 333 358 313 344 131 297 180 225 273 247 255 263 310 334 14 44 265 281 273 269 272 260 255 243 236 221 219 223 222 222 221 221 223 224 223 224 225 224 224 225 225 225 225 227 231 233 234 232 232 234 235 235 238 240 238 237 237 235 238 241 246 249 250 249 247 244 242 248 252 247 243 241 239 239 241 241 240 239 238 237 236 235 232 229 228 228 229 230 231 232 232
105 74 72 82 143 258 306 348 345 141 171 343 117 209 270 264 268 275 329 335 170 265 275 280 286 276 266 260 255 253 242 228 230 232 230 230 229 228 228 229 228 227 228 227 227 227 227 227 226 226 227 229 233 235 233 233 235 236 236 240 241 241 241 241 241 242 246 250 252 253 251 249 244 245 255 255 249 245 241 238 244 248 243 239 238 238 237 236 235 233 231 230 231 232 232 233 233
50 115 272 359 168 251 311 356 51 143 282 18 99 220 274 269 266 270 331 31 149 232 278 287 280 270 262 257 249 250 253 243 243 243 239 236 234 233 232 231 231 230 230 230 231 230 229 230 228 229 229 228 229 233 236 236 236 237 237 239 240 240 240 240 242 242 243 244 245 246 246 247 242 238 248 255 249 246 243 237 240 250 248 241 237 237 238 239 237 234 234 234 234 233 232 232 232
352 110 179 214 168 248 316 358 7 45 258 359 81 223 268 288 277 278 324 52 98 264 280 281 273 269 261 250 246 247 257 255 250 246 242 239 237 236 235 234 234 233 233 233 233 232 232 232 231 232 232 231 230 228 231 235 237 239 239 238 239 240 242 242 242 241 241 242 241 240 238 238 240 240 244 248 242 239 242 239 235 243 250 246 239 236 238 240 238 235 234 234 233 233 232 230 230
266 60 124 198 176 191 286 270 321 31 118 248 10 251 246 269 284 286 295 302 325 282 271 269 266 265 258 249 250 246 250 254 249 244 242 240 239 239 238 238 237 236 237 236 236 237 237 235 234 235 234 233 234 231 228 228 233 239 239 238 240 240 238 238 239 237 236 241 243 242 238 235 237 240 240 245 242 237 240 240 235 242 252 247 240 236 236 237 235 234 234 233 232 232 232 231 231
175 149 133 180 205 204 247 242 265 25 90 208 274 267 260 273 282 282 281 216 231 260 260 265 267 261 259 252 247 245 246 248 247 246 246 246 245 244 243 242 240 239 239 238 238 238 239 238 237 237 237 234 234 234 232 229 230 234 235 235 236 236 234 235 240 239 235 235 238 243 248 244 241 237 233 238 241 237 236 234 230 243 251 245 239 234 232 232 232 232 233 232 231 231 234 235 235
155 162 145 155 180 228 243 248 269 358 120 223 227 239 267 278 282 282 278 187 229 269 276 270 266 261 258 250 243 243 242 245 253 257 257 254 252 251 249 247 245 244 242 241 240 239 239 239 238 238 238 236 232 230 231 231 230 230 232 232 234 237 239 242 245 246 244 240 241 247 255 255 251 245 239 241 241 237 234 231 228 238 244 238 233 232 231 234 233 232 231 230 230 228 230 233 233
132 129 115 148 176 232 245 256 297 1 148 248 240 253 276 271 273 275 273 256 260 270 273 268 263 257 254 250 249 243 238 249 264 267 260 255 255 253 251 249 246 244 243 241 240 239 240 239 238 238 238 235 230 226 225 226 226 226 228 230 233 236 240 241 241 243 245 246 248 249 249 249 249 251 251 249 247 243 241 237 234 238 241 235 234 236 238 240 236 232 230 229 230 228 227 228 228
98 127 135 156 196 220 244 229 306 356 172 264 355 312 273 263 267 270 271 263 249 246 246 256 257 253 253 249 252 252 253 270 275 268 263 256 253 249 246 244 240 240 240 238 238 240 240 238 238 240 238 234 231 228 224 224 224 223 224 227 231 235 237 239 239 241 243 244 246 245 243 242 242 246 248 246 251 253 247 240 235 238 242 240 239 241 242 243 239 234 230 229 229 228 229 230 226
86 108 132 164 220 226 280 281 328 12 164 268 350 331 277 265 263 263 259 250 248 241 233 249 259 259 258 248 252 266 277 282 277 272 270 263 257 248 245 243 240 242 242 241 240 240 238 238 239 239 237 235 234 230 226 226 226 225 226 228 230 233 236 239 240 241 241 241 242 245 248 247 247 248 247 246 252 256 250 244 242 243 246 244 241 239 239 241 239 234 231 230 227 226 230 232 229
90 108 129 178 238 183 221 257 322 17 84 271 311 307 284 281 284 274 264 258 269 275 257 253 252 252 261 265 270 271 269 274 277 275 272 270 269 259 250 247 245 244 241 240 239 238 237 237 239 238 235 235 234 232 230 229 229 228 229 231 233 234 237 239 240 242 243 243 245 250 252 250 247 247 246 248 250 247 244 247 249 247 245 246 245 241 240 241 240 236 232 231 227 224 225 230 231
7 152 145 165 195 183 201 211 328 11 36 36 14 322 294 309 322 286 292 328 296 298 303 279 261 255 270 286 281 259 254 263 268 268 267 271 274 272 264 257 252 247 243 243 241 239 240 240 240 238 236 235 234 233 231 229 228 227 226 228 231 234 237 238 238 240 242 244 246 248 248 246 245 246 247 250 249 244 243 246 247 245 241 240 242 244 246 247 244 240 235 232 230 228 227 230 231
287 220 178 173 171 163 160 117 86 45 8 1 22 341 289 317 316 271 304 344 308 307 319 293 293 299 291 286 281 274 268 260 257 264 273 277 278 282 283 270 255 250 246 246 243 242 242 241 240 238 235 235 234 233 230 227 227 225 223 222 223 226 230 232 235 237 238 240 244 246 246 247 246 247 248 248 250 251 253 251 246 243 240 238 243 251 249 244 241 241 238 234 236 236 230 228 229
208 231 168 146 134 131 139 131 101 100 218 329 50 146 258 316 309 276 311 325 301 301 300 297 312 318 313 295 290 296 290 276 267 273 276 277 285 294 299 287 249 246 240 232 230 232 234 235 234 233 233 233 232 231 228 226 225 225 225 224 225 224 227 232 238 241 242 243 245 246 246 247 247 247 246 246 248 249 250 249 245 244 244 244 249 253 248 243 243 243 240 236 237 236 230 225 229
208 229 127 129 129 136 146 121 102 177 214 331 21 110 214 301 280 276 322 319 301 305 308 319 331 328 333 325 311 314 303 290 278 281 290 298 311 316 327 48 68 106 174 188 192 201 212 219 222 224 227 229 229 229 228 226 226 227 228 228 230 231 234 241 246 248 249 249 249 249 248 248 248 247 247 248 248 245 243 244 246 247 248 249 249 248 244 242 241 240 238 236 235 235 233 230 230
239 205 127 133 128 128 126 100 93 14 14 293 328 47 163 269 276 300 353 333 295 299 306 316 327 332 338 338 339 341 334 325 284 269 309 344 8 23 54 67 73 90 106 120 129 141 161 177 193 205 212 218 222 224 226 227 228 231 232 232 234 238 243 247 250 251 251 251 251 252 251 250 249 248 247 247 247 246 245 247 250 249 250 254 255 251 247 243 241 239 238 236 235 235 236 233 229
186 147 105 83 77 80 81 88 98 45 36 233 271 18 157 262 285 308 10 313 270 283 293 290 294 306 316 326 339 345 347 354 346 303 317 4 41 57 76 81 84 92 97 101 106 113 125 140 159 176 188 199 210 217 222 226 228 232 235 236 239 244 248 249 249 249 250 250 251 252 251 250 250 249 248 247 246 247 248 250 251 251 251 254 256 253 248 244 241 240 238 238 238 238 235 231 229
142 124 84 66 41 36 50 53 78 66 315 250 257 327 77 269 280 265 219 220 228 251 287 290 305 319 321 326 341 348 350 347 341 339 356 44 71 82 91 92 90 93 97 99 101 104 110 119 131 144 159 173 189 205 214 222 227 232 236 240 244 248 251 250 249 249 250 251 252 253 253 253 253 252 252 251 249 248 249 250 251 252 252 253 253 252 249 245 242 242 242 243 244 243 239 233 232
108 102 98 87 14 12 28 1 40 107 253 260 272 314 126 216 259 246 233 242 225 197 186 256 306 319 326 335 345 345 341 339 343 356 19 55 74 80 85 86 87 90 92 93 94 97 101 106 112 121 133 147 170 193 209 222 230 236 242 245 249 253 255 254 253 255 256 256 257 259 258 257 256 256 255 254 254 253 251 250 250 250 250 251 251 253 253 252 251 250 249 248 248 247 242 236 236
75 108 114 103 24 17 5 312 330 208 244 267 282 242 182 234 251 251 253 255 239 216 210 234 273 292 313 333 342 337 336 341 350 12 39 57 66 71 77 80 83 85 85 87 89 89 91 93 93 97 102 112 137 178 213 233 241 246 251 253 257 260 261 261 262 264 265 265 266 266 264 263 263 262 261 261 262 263 259 256 254 252 252 252 253 253 255 255 256 257 257 256 254 251 245 240 240
130 142 136 132 125 113 226 262 284 250 253 281 274 242 245 265 262 248 245 246 233 218 223 237 251 267 290 310 317 317 328 337 343 29 62 67 74 78 80 81 81 83 84 85 86 86 87 87 88 90 92 96 109 147 211 238 253 260 262 265 269 270 270 271 272 273 275 275 274 272 271 270 270 270 271 272 273 272 268 265 263 261 259 259 258 257 257 256 256 258 259 259 258 253 249 246 246
167 162 130 145 156 152 196 212 201 227 256 297 284 245 192 207 251 234 230 253 260 235 250 256 257 263 273 296 319 332 354 3 10 54 70 67 75 81 80 81 81 81 83 84 84 84 85 85 86 88 87 85 85 84 2 290 287 282 281 281 283 282 281 281 280 280 280 279 279 277 276 276 276 277 279 279 278 275 272 271 269 267 266 265 264 263 262 260 258 257 257 258 258 257 254 252 252
227 117 103 159 183 136 137 176 174 172 142 291 258 238 216 216 270 265 249 287 281 269 276 254 265 297 301 25 39 34 26 27 40 65 70 60 69 76 77 80 81 80 79 78 77 75 75 74 73 72 69 63 58 52 41 21 351 322 308 302 299 295 292 291 290 289 287 284 283 281 280 281 280 281 280 279 278 275 273 272 270 269 268 267 266 264 263 261 258 256 255 255 256 257 257 257 256
156 124 162 208 163 114 115 173 73 84 164 256 223 245 286 316 290 299 1 292 268 307 314 215 242 319 74 94 80 70 60 52 47 57 68 64 67 71 71 73 72 71 72 71 70 68 66 65 63 62 59 53 47 42 38 34 23 7 344 326 319 313 308 306 304 302 297 291 286 283 283 283 281 281 280 278 277 275 273 272 270 270 269 267 266 265 263 261 260 259 258 257 256 255 255 256 256
123 173 199 178 114 98 111 138 20 43 220 274 271 229 282 330 267 321 12 223 251 278 261 212 181 105 123 115 104 99 80 40 15 35 60 64 65 65 66 67 66 68 71 72 73 72 70 68 65 63 59 52 46 40 37 32 23 15 6 356 346 335 328 322 316 312 307 298 292 289 287 285 284 283 282 280 278 276 274 273 271 271 270 268 266 265 263 262 262 262 262 262 261 258 255 255 254
118 180 169 112 136 166 103 137 155 121 222 277 303 273 265 204 219 303 267 212 225 233 219 187 154 145 141 129 121 117 103 39 41 54 59 57 60 61 62 65 66 70 74 76 79 79 77 73 68 66 62 57 53 47 45 39 29 22 16 10 4 354 344 336 329 323 316 308 305 302 295 292 291 288 285 283 281 279 277 275 274 273 272 270 268 266 265 264 262 262 262 262 262 260 256 255 255
34 106 114 78 130 165 162 151 163 174 193 244 308 322 262 225 214 216 225 220 200 188 182 179 176 163 151 143 140 149 169 157 93 71 65 58 61 62 64 66 67 69 71 75 78 78 76 73 70 69 65 61 57 51 49 45 38 31 26 23 19 13 3 351 345 337 329 325 320 314 307 304 300 294 290 287 283 281 280 279 277 276 275 273 271 269 267 266 264 263 263 263 262 259 255 255 255
115 131 162 173 73 119 167 88 118 141 160 182 247 297 266 249 208 202 224 226 191 180 167 172 184 172 157 152 155 162 160 148 113 88 79 70 69 70 72 73 71 69 69 70 72 72 72 70 68 66 62 58 55 51 49 45 41 39 35 34 31 27 20 11 5 355 346 342 334 326 321 313 306 302 298 292 289 287 285 284 281 279 277 275 274 272 270 267 265 265 265 264 263 259 256 255 255
164 173 183 176 144 123 149 249 236 118 135 169 170 253 269 256 198 208 229 215 207 209 175 166 179 177 166 165 179 175 146 134 113 95 93 83 79 78 78 76 71 67 63 62 64 65 65 65 64 63 60 56 51 48 46 42 40 39 37 36 34 29 24 19 15 8 1 356 347 340 332 321 315 313 307 300 297 295 292 289 285 282 280 278 275 273 271 268 266 266 265 264 263 259 257 256 255